CW1490 Weather Reports


time (UTC)temp
C
wind
direction
speed
KPH
gust
KPH
rain 1hr
cm
rain 24hr
cm
rain mn
cm
humidity
%
barometer
mb
20260506005008 20 243 3.2 8.0 0.00 0.00 0.00 67 1007.8
20260506004526 20 265 4.8 8.0 0.00 0.00 0.00 64 1007.8
20260506004010 20 178 4.8 8.0 0.00 0.00 0.00 66 1007.8
20260506003512 20 221 0.0 4.8 0.00 0.00 0.00 65 1007.6
20260506003013 20 67 1.6 4.8 0.00 0.00 0.00 64 1007.7
20260506002504 20 247 0.0 9.7 0.00 0.00 0.00 64 1007.9
20260506002002 20 9 4.8 9.7 0.00 0.00 0.00 62 1007.9
20260506001504 20 216 4.8 9.7 0.00 0.00 0.00 63 1007.9
20260506001006 21 221 1.6 11.3 0.00 0.00 0.00 60 1007.7
20260506000506 21 163 4.8 11.3 0.00 0.00 0.00 58 1007.6
20260506000002 21 238 3.2 12.9 0.00 0.00 0.00 61 1007.5
20260505235502 21 30 3.2 12.9 0.00 0.00 0.00 60 1007.5
20260505235003 21 141 4.8 9.7 0.00 0.00 0.00 60 1007.6
20260505234538 21 170 3.2 8.0 0.00 0.00 0.00 61 1007.5
20260505234005 21 178 3.2 6.4 0.00 0.00 0.00 62 1007.4
20260505233502 21 93 3.2 16.1 0.00 0.00 0.00 61 1007.2
20260505233028 21 9 3.2 16.1 0.00 0.00 0.00 60 1007.0
20260505232505 21 43 4.8 12.9 0.00 0.00 0.00 60 1006.9
20260505232004 21 9 4.8 14.5 0.00 0.00 0.00 59 1006.7
20260505231514 21 32 4.8 20.9 0.00 0.00 0.00 59 1006.8
20260505231006 21 71 8.0 38.6 0.00 0.00 0.00 56 1006.9
20260505230501 22 53 12.9 38.6 0.00 0.00 0.00 55 1006.9
20260505230008 23 50 11.3 30.6 0.00 0.00 0.00 52 1006.4
20260505225505 23 321 9.7 30.6 0.00 0.00 0.00 47 1006.4
20260505225009 24 334 14.5 41.8 0.00 0.00 0.00 45 1006.4
20260505224538 25 209 22.5 48.3 0.00 0.00 0.00 45 1005.4
20260505224003 25 211 22.5 48.3 0.00 0.00 0.00 45 1005.2
20260505223513 25 221 22.5 40.2 0.00 0.00 0.00 45 1004.9
20260505223005 25 237 19.3 40.2 0.00 0.00 0.00 43 1004.7
20260505222505 26 238 22.5 41.8 0.00 0.00 0.00 41 1004.6
20260505222005 26 211 24.1 41.8 0.00 0.00 0.00 38 1004.5
20260505221510 27 210 25.7 49.9 0.00 0.00 0.00 32 1004.4
20260505221006 27 234 25.7 56.3 0.00 0.00 0.00 31 1004.5
20260505220507 27 232 27.4 56.3 0.00 0.00 0.00 30 1004.2
20260505220015 27 177 32.2 69.2 0.00 0.00 0.00 29 1003.9
20260505215505 27 200 20.9 69.2 0.00 0.00 0.00 30 1004.2
20260505215007 27 212 22.5 56.3 0.00 0.00 0.00 30 1004.2
20260505214504 27 185 29.0 56.3 0.00 0.00 0.00 30 1004.2
20260505214003 27 198 20.9 49.9 0.00 0.00 0.00 30 1004.1
20260505213506 27 208 29.0 53.1 0.00 0.00 0.00 29 1004.2
20260505213006 28 213 29.0 53.1 0.00 0.00 0.00 30 1004.2
20260505212509 28 219 27.4 48.3 0.00 0.00 0.00 30 1004.0
20260505212006 27 247 29.0 48.3 0.00 0.00 0.00 30 1004.0
20260505211518 27 259 25.7 53.1 0.00 0.00 0.00 30 1003.8
20260505211003 27 219 30.6 53.1 0.00 0.00 0.00 30 1003.7
20260505210505 27 207 22.5 51.5 0.00 0.00 0.00 30 1003.7
20260505210014 27 223 20.9 53.1 0.00 0.00 0.00 31 1003.7
20260505205509 27 194 29.0 77.2 0.00 0.00 0.00 31 1003.7
20260505205006 27 219 32.2 77.2 0.00 0.00 0.00 30 1003.6
20260505204519 27 208 29.0 69.2 0.00 0.00 0.00 31 1003.7
20260505204010 27 203 32.2 67.6 0.00 0.00 0.00 31 1003.6
20260505203506 28 223 30.6 67.6 0.00 0.00 0.00 31 1003.6
20260505203008 27 173 19.3 57.9 0.00 0.00 0.00 31 1003.7
20260505202503 28 241 32.2 57.9 0.00 0.00 0.00 32 1003.7
20260505202003 28 219 32.2 72.4 0.00 0.00 0.00 31 1003.7
20260505201506 28 223 38.6 75.6 0.00 0.00 0.00 31 1003.8
20260505201011 28 189 33.8 75.6 0.00 0.00 0.00 31 1003.8
20260505200503 28 215 32.2 61.2 0.00 0.00 0.00 31 1003.9
20260505200009 28 219 29.0 61.2 0.00 0.00 0.00 32 1004.0
20260505195505 28 221 30.6 61.2 0.00 0.00 0.00 32 1003.9
20260505195003 28 215 22.5 61.2 0.00 0.00 0.00 32 1004.0
20260505194517 28 223 27.4 66.0 0.00 0.00 0.00 31 1004.0
20260505194007 28 223 38.6 66.0 0.00 0.00 0.00 31 1004.2
20260505193510 28 225 29.0 59.5 0.00 0.00 0.00 31 1004.2
20260505193025 28 182 19.3 61.2 0.00 0.00 0.00 31 1004.2
20260505192507 28 156 20.9 61.2 0.00 0.00 0.00 31 1004.2
20260505192010 28 221 27.4 59.5 0.00 0.00 0.00 31 1004.3
20260505191507 28 232 32.2 59.5 0.00 0.00 0.00 30 1004.2
20260505191007 28 213 17.7 53.1 0.00 0.00 0.00 31 1004.1
20260505190503 28 219 35.4 59.5 0.00 0.00 0.00 31 1004.2
20260505190007 28 167 32.2 62.8 0.00 0.00 0.00 33 1004.3
20260505185514 27 231 41.8 62.8 0.00 0.00 0.00 34 1004.4
20260505185004 27 191 30.6 45.1 0.00 0.00 0.00 37 1004.5
20260505184519 27 205 25.7 46.7 0.00 0.00 0.00 37 1004.4
20260505184008 28 209 27.4 51.5 0.00 0.00 0.00 37 1004.4
20260505183508 28 157 25.7 59.5 0.00 0.00 0.00 37 1004.5
20260505183020 28 227 25.7 59.5 0.00 0.00 0.00 38 1004.6
20260505182507 27 210 25.7 56.3 0.00 0.00 0.00 35 1004.6
20260505182012 27 216 33.8 56.3 0.00 0.00 0.00 37 1005.1
20260505181523 27 219 25.7 45.1 0.00 0.00 0.00 40 1004.9
20260505181012 27 207 25.7 48.3 0.00 0.00 0.00 38 1005.1
20260505180507 27 221 29.0 48.3 0.00 0.00 0.00 38 1005.2
20260505180034 27 141 24.1 48.3 0.00 0.00 0.00 38 1005.2
20260505175503 27 207 30.6 49.9 0.00 0.00 0.00 38 1005.2
20260505175007 27 207 25.7 57.9 0.00 0.00 0.00 38 1005.2
20260505174512 27 246 30.6 61.2 0.00 0.00 0.00 38 1005.2
20260505174011 27 214 29.0 61.2 0.00 0.00 0.00 38 1005.4
20260505173510 27 137 17.7 38.6 0.00 0.00 0.00 39 1005.3
20260505173031 27 198 25.7 43.5 0.00 0.00 0.00 38 1005.4
20260505172509 27 247 24.1 53.1 0.00 0.00 0.00 38 1005.5
20260505172008 27 224 33.8 53.1 0.00 0.00 0.00 38 1005.5
20260505171521 27 221 25.7 49.9 0.00 0.00 0.00 38 1005.6
20260505171007 27 153 30.6 49.9 0.00 0.00 0.00 37 1005.7
20260505170510 27 171 25.7 49.9 0.00 0.00 0.00 38 1005.5
20260505170024 27 196 22.5 41.8 0.00 0.00 0.00 38 1005.5
20260505165507 27 223 25.7 41.8 0.00 0.00 0.00 39 1005.6
20260505165011 26 173 17.7 41.8 0.00 0.00 0.00 41 1005.7
20260505164526 26 158 16.1 41.8 0.00 0.00 0.00 41 1005.9
20260505164009 27 207 14.5 41.8 0.00 0.00 0.00 42 1005.9
20260505163504 26 229 25.7 41.8 0.00 0.00 0.00 41 1006.0
20260505163028 26 221 17.7 41.8 0.00 0.00 0.00 42 1006.1
20260505162504 26 200 22.5 43.5 0.00 0.00 0.00 43 1006.2
20260505162007 26 209 24.1 43.5 0.00 0.00 0.00 43 1006.3
20260505161520 26 146 12.9 30.6 0.00 0.00 0.00 43 1006.1
20260505161007 26 142 17.7 40.2 0.00 0.00 0.00 43 1006.4
20260505160507 26 219 20.9 40.2 0.00 0.00 0.00 42 1006.6
20260505153027 24 153 19.3 38.6 0.00 0.00 0.00 44 1007.4
20260505152509 24 218 14.5 40.2 0.00 0.00 0.00 45 1007.6
20260505152008 23 231 22.5 40.2 0.00 0.00 0.00 46 1007.7
20260505151527 23 205 14.5 40.2 0.00 0.00 0.00 47 1007.8
20260505151009 23 223 25.7 40.2 0.00 0.00 0.00 47 1007.8
20260505150503 23 221 19.3 35.4 0.00 0.00 0.00 47 1008.0
20260505140507 18 225 14.5 22.5 0.00 0.00 0.00 60 1008.8
20260505125008 15 232 9.7 25.7 0.00 0.00 0.00 67 1009.0
20260505124532 15 202 9.7 25.7 0.00 0.00 0.00 70 1009.1
20260505124009 15 236 12.9 25.7 0.00 0.00 0.00 70 1009.0
20260505123504 14 219 12.9 25.7 0.00 0.00 0.00 71 1009.0
20260505123005 14 242 11.3 27.4 0.00 0.00 0.00 71 1009.0
20260505122504 13 221 16.1 27.4 0.00 0.00 0.00 72 1009.1
20260505122003 13 183 11.3 30.6 0.00 0.00 0.00 74 1009.0
20260505121524 13 223 16.1 30.6 0.00 0.00 0.00 73 1009.1
20260505121003 13 237 9.7 19.3 0.00 0.00 0.00 74 1009.2
20260505120503 12 188 9.7 17.7 0.00 0.00 0.00 74 1009.3
20260505120016 12 186 8.0 17.7 0.00 0.00 0.00 74 1009.2
20260505115506 12 200 9.7 19.3 0.00 0.00 0.00 74 1009.3
20260505115007 12 191 9.7 19.3 0.00 0.00 0.00 74 1009.4
20260505114517 12 234 11.3 19.3 0.00 0.00 0.00 75 1009.4
20260505114009 12 217 12.9 20.9 0.00 0.00 0.00 75 1009.3
20260505113509 12 203 6.4 20.9 0.00 0.00 0.00 75 1009.4
20260505113021 12 178 9.7 19.3 0.00 0.00 0.00 75 1009.4
20260505112511 12 207 8.0 25.7 0.00 0.00 0.00 76 1009.5
20260505112008 12 216 12.9 25.7 0.00 0.00 0.00 75 1009.5
20260505111510 12 218 11.3 19.3 0.00 0.00 0.00 76 1009.5
20260505111004 11 200 12.9 19.3 0.00 0.00 0.00 77 1009.4
20260505110504 11 196 8.0 16.1 0.00 0.00 0.00 77 1009.3
20260505102007 9 229 8.0 12.9 0.00 0.00 0.00 82 1008.8
20260505101523 9 232 6.4 11.3 0.00 0.00 0.00 82 1008.7
20260505101007 9 213 8.0 11.3 0.00 0.00 0.00 81 1008.6
20260505100507 9 238 4.8 9.7 0.00 0.00 0.00 81 1008.7
20260505100036 10 231 4.8 9.7 0.00 0.00 0.00 80 1008.7
20260505095505 10 221 4.8 8.0 0.00 0.00 0.00 80 1008.7
20260505095006 10 221 4.8 8.0 0.00 0.00 0.00 79 1008.8
20260505094515 10 210 3.2 12.9 0.00 0.00 0.00 78 1008.8
20260505094006 10 247 4.8 12.9 0.00 0.00 0.00 78 1008.8
20260505093506 10 236 8.0 12.9 0.00 0.00 0.00 77 1008.7
20260505093026 10 218 4.8 12.9 0.00 0.00 0.00 77 1008.7
20260505092507 10 224 6.4 12.9 0.00 0.00 0.00 77 1008.6
20260505092006 11 218 4.8 16.1 0.00 0.00 0.00 76 1008.6
20260505091528 11 231 6.4 16.1 0.00 0.00 0.00 76 1008.6
20260505091007 11 219 8.0 14.5 0.00 0.00 0.00 77 1008.7
20260505090510 11 207 6.4 16.1 0.00 0.00 0.00 77 1008.7
20260505090024 10 207 6.4 16.1 0.00 0.00 0.00 78 1008.8
20260505085508 10 282 3.2 12.9 0.00 0.00 0.00 77 1008.9
20260505085015 10 205 3.2 12.9 0.00 0.00 0.00 77 1008.9
20260505084528 10 224 4.8 11.3 0.00 0.00 0.00 78 1009.0
20260505084003 10 205 1.6 8.0 0.00 0.00 0.00 77 1009.1
20260505083504 10 195 3.2 14.5 0.00 0.00 0.00 76 1009.1
20260505083020 11 217 3.2 14.5 0.00 0.00 0.00 75 1009.0
20260505082504 11 221 3.2 12.9 0.00 0.00 0.00 74 1009.0
20260505082006 11 217 3.2 19.3 0.00 0.00 0.00 74 1008.9
20260505081522 11 200 4.8 19.3 0.00 0.00 0.00 74 1008.9
20260505081010 11 232 8.0 19.3 0.00 0.00 0.00 74 1008.8
20260505080508 11 215 8.0 19.3 0.00 0.00 0.00 74 1008.8
20260505080041 11 209 4.8 17.7 0.00 0.00 0.00 74 1008.7
20260505075507 11 205 4.8 20.9 0.00 0.00 0.00 73 1008.8
20260505075008 11 227 9.7 20.9 0.00 0.00 0.00 73 1008.7
20260505074528 11 232 8.0 19.3 0.00 0.00 0.00 73 1008.9
20260505074010 11 207 11.3 19.3 0.00 0.00 0.00 73 1008.9
20260505073508 11 232 9.7 17.7 0.00 0.00 0.00 73 1008.9
20260505073027 11 212 6.4 16.1 0.00 0.00 0.00 73 1008.9
20260505072511 11 236 8.0 17.7 0.00 0.00 0.00 72 1008.9
20260505072008 11 213 9.7 17.7 0.00 0.00 0.00 72 1008.9
20260505071522 11 211 6.4 16.1 0.00 0.00 0.00 72 1009.0
20260505071013 11 219 8.0 16.1 0.00 0.00 0.00 72 1009.0
20260505070511 11 229 6.4 14.5 0.00 0.00 0.00 72 1009.0
20260505070023 11 236 6.4 14.5 0.00 0.00 0.00 72 1009.0
20260505065507 11 238 6.4 16.1 0.00 0.00 0.00 72 1009.0
20260505065015 11 252 6.4 16.1 0.00 0.00 0.00 71 1009.0
20260505064527 11 243 6.4 17.7 0.00 0.00 0.00 71 1009.0
20260505064008 11 243 9.7 17.7 0.00 0.00 0.00 71 1009.0
20260505063511 11 221 6.4 17.7 0.00 0.00 0.00 70 1009.0
20260505063009 12 237 6.4 17.7 0.00 0.00 0.00 70 1009.0
20260505062504 12 229 9.7 17.7 0.00 0.00 0.00 70 1009.0
20260505062005 12 217 11.3 19.3 0.00 0.00 0.00 69 1009.1
20260505061512 12 193 9.7 19.3 0.00 0.00 0.00 69 1009.1
20260505061003 12 207 9.7 17.7 0.00 0.00 0.00 69 1009.2
20260505060507 12 190 11.3 17.7 0.00 0.00 0.00 68 1009.2
20260505060011 12 265 9.7 19.3 0.00 0.00 0.00 68 1009.3
20260505055503 12 232 11.3 19.3 0.00 0.00 0.00 68 1009.3
20260505055003 12 194 8.0 16.1 0.00 0.00 0.00 68 1009.4
20260505054505 12 216 8.0 17.7 0.00 0.00 0.00 67 1009.4
20260505054004 12 232 9.7 17.7 0.00 0.00 0.00 67 1009.3
20260505053503 12 205 9.7 19.3 0.00 0.00 0.00 67 1009.3
20260505053007 12 218 11.3 19.3 0.00 0.00 0.00 68 1009.3
20260505052503 12 223 6.4 12.9 0.00 0.00 0.00 68 1009.2
20260505052004 12 225 4.8 17.7 0.00 0.00 0.00 68 1009.3
20260505051522 12 173 4.8 17.7 0.00 0.00 0.00 67 1009.3
20260505051005 12 231 6.4 16.1 0.00 0.00 0.00 66 1009.4
20260505050503 12 212 3.2 9.7 0.00 0.00 0.00 65 1009.4
20260505041510 13 224 8.0 16.1 0.00 0.00 0.00 63 1009.2
20260505041006 13 227 8.0 16.1 0.00 0.00 0.00 62 1009.2
20260505040506 13 212 8.0 16.1 0.00 0.00 0.00 62 1009.2
20260505040016 13 191 6.4 16.1 0.00 0.00 0.00 62 1009.2
20260505035507 13 219 6.4 25.7 0.00 0.00 0.00 62 1009.1
20260505035007 13 207 6.4 25.7 0.00 0.00 0.00 61 1009.0
20260505034517 13 221 6.4 16.1 0.00 0.00 0.00 60 1008.9
20260505034006 14 218 8.0 17.7 0.00 0.00 0.00 60 1008.9
20260505033507 14 211 11.3 17.7 0.00 0.00 0.00 59 1008.9
20260505033023 14 207 11.3 17.7 0.00 0.00 0.00 60 1008.9
20260505032508 14 218 8.0 22.5 0.00 0.00 0.00 59 1008.9
20260505032007 15 227 8.0 24.1 0.00 0.00 0.00 58 1008.8
20260505031526 15 189 11.3 24.1 0.00 0.00 0.00 57 1008.7
20260505031003 15 213 12.9 29.0 0.00 0.00 0.00 57 1008.7
20260505030504 15 201 12.9 29.0 0.00 0.00 0.00 57 1008.7
20260505030012 15 209 16.1 25.7 0.00 0.00 0.00 56 1008.7
20260505025514 15 202 14.5 29.0 0.00 0.00 0.00 56 1008.7
20260505025007 15 223 14.5 27.4 0.00 0.00 0.00 56 1008.7
20260505024517 15 207 16.1 25.7 0.00 0.00 0.00 56 1008.7
20260505024010 15 211 11.3 19.3 0.00 0.00 0.00 56 1008.7
20260505023505 15 219 11.3 27.4 0.00 0.00 0.00 55 1008.7
20260505023022 15 217 14.5 27.4 0.00 0.00 0.00 55 1008.7
20260505022506 15 208 9.7 19.3 0.00 0.00 0.00 55 1008.7
20260505022010 15 219 9.7 25.7 0.00 0.00 0.00 54 1008.8
20260505021520 16 227 12.9 25.7 0.00 0.00 0.00 53 1008.7
20260505021006 16 213 14.5 25.7 0.00 0.00 0.00 53 1008.7
20260505020508 16 219 12.9 22.5 0.00 0.00 0.00 53 1008.7
20260505020023 16 218 12.9 29.0 0.00 0.00 0.00 52 1008.6
20260505015508 16 238 14.5 29.0 0.00 0.00 0.00 52 1008.5
20260505015005 15 182 14.5 27.4 0.00 0.00 0.00 54 1008.5
20260505014521 15 198 11.3 27.4 0.00 0.00 0.00 53 1008.5
20260505014007 15 216 12.9 22.5 0.00 0.00 0.00 55 1008.5
20260505013506 13 207 11.3 19.3 0.00 0.00 0.00 57 1008.5
20260505013020 13 196 9.7 17.7 0.00 0.00 0.00 60 1008.5
20260505012506 12 221 9.7 14.5 0.00 0.00 0.00 67 1008.4
20260505012010 12 219 9.7 14.5 0.00 0.00 0.00 67 1008.2
20260505011522 12 214 4.8 11.3 0.00 0.00 0.00 66 1008.1
20260505011006 13 218 6.4 12.9 0.00 0.00 0.00 65 1008.1
20260505010507 13 221 8.0 12.9 0.00 0.00 0.00 63 1008.1
20260505010023 13 195 6.4 11.3 0.00 0.00 0.00 60 1008.0
20260505005508 14 212 6.4 11.3 0.00 0.00 0.00 60 1007.9